Location: Caltech
(34.1382°N, 118.1253°W)
Time: 23:13:16
(UTC-08:00)

AO-27 - Visible Passes

Search period start: 20 February 2018 00:00
Search period end: 02 March 2018 00:00
Orbit: 786 x 797 km, 98.8° (Epoch: 20 February)

Date Brightness Start Highest point End Pass type
(mag) Time Alt. Az. Time Alt. Az. Time Alt. Az.
20 Feb 10.3 03:14:53 10° NNE 03:15:32 13° NE 03:15:32 13° NE visible
20 Feb 9.5 04:54:55 10° NNW 04:56:18 16° NNW 04:56:18 16° NNW visible
21 Feb 9.3 04:25:10 10° N 04:27:03 21° NNW 04:27:03 21° NNW visible
22 Feb 9.4 03:55:53 10° NNE 03:57:48 23° N 03:57:48 23° N visible
23 Feb 9.9 03:26:59 10° NNE 03:28:34 19° NNE 03:28:34 19° NNE visible
23 Feb 9.4 05:07:44 10° NNW 05:09:20 15° NW 05:09:20 15° NW visible
24 Feb 10.4 02:58:36 10° NE 02:59:19 13° NE 02:59:19 13° NE visible
24 Feb 9.1 04:37:41 10° N 04:40:06 23° NNW 04:40:06 23° NNW visible
25 Feb 8.9 04:08:14 10° N 04:10:51 30° N 04:10:51 30° N visible
26 Feb 9.3 03:39:11 10° NNE 03:41:37 28° NNE 03:41:37 28° NNE visible
26 Feb 9.5 05:20:49 10° NW 05:22:23 13° NW 05:22:23 13° NW visible
27 Feb 10.0 03:10:34 10° NE 03:12:22 20° NE 03:12:22 20° NE visible
27 Feb 9.0 04:50:18 10° NNW 04:53:08 23° NW 04:53:08 23° NW visible
28 Feb 10.6 02:42:42 10° NE 02:43:08 11° ENE 02:43:08 11° ENE visible
28 Feb 8.6 04:20:39 10° N 04:23:54 34° NNW 04:23:54 34° NNW visible
01 Mar 8.7 03:51:26 10° NNE 03:54:40 39° NNE 03:54:40 39° NNE visible
